Location: Cahas Mountain Overlook
(37.0833°N, 80.1000°W)
Time: 06:56:50
(UTC-04:00)

Explorer 7 - Pass Details

Date: 09 February 2026
Orbit: 430 x 540 km, 50.2° (Epoch: 14 March)

Event Time Altitude Azimuth Distance (km) Brightness Sun altitude
Rises 18:15:38 0° 237° (WSW) 2,460 11.8 -4.9°
Reaches altitude 10° 18:17:44 10° 240° (WSW) 1,608 10.8 -5.4°
Maximum altitude 18:21:21 67° 323° (NW) 520 6.8 -6.1°
Drops below altitude 10° 18:25:09 10° 47° (NE) 1,687 8.8 -6.8°
Enters shadow 18:25:59 - 49° (NE) 2,025 9.2 -7.0°
Sets 18:27:24 0° 50° (NE) 2,595 - -7.2°
